Temperature
19 17 17 18 18 19 19 19 19 20 21 21 21 21 21 22 22 22 22 22 22 22 22 22 21 21 20 20 19 18 18 17 17 16 15 15 14 14 14 14 14 13 13 13
18 18 19 20 20 20 20 20 20 20 22 22 21 21 21 21 22 23 22 22 22 22 21 21 21 21 20 20 19 19 18 17 17 16 15 15 14 14 14 14 13 13 13 13
19 19 21 21 20 20 20 20 20 21 22 22 22 21 21 22 23 23 23 23 23 22 22 21 21 21 20 20 20 19 18 18 17 16 15 15 14 14 14 13 13 13 13 13
19 20 21 21 21 20 20 21 21 22 20 20 21 20 20 21 21 22 22 23 23 22 22 22 21 21 21 20 20 19 18 18 17 16 16 15 14 14 14 14 13 13 13 13
20 21 21 21 22 22 21 22 22 22 21 19 20 19 20 21 22 22 22 23 23 23 23 22 22 21 21 20 20 19 18 17 17 16 16 15 14 14 14 14 13 13 13 13
21 21 21 22 23 23 23 21 20 18 18 19 20 20 20 20 22 23 22 23 23 23 23 22 22 21 20 20 19 19 18 18 17 16 16 15 14 14 14 14 14 13 13 13
22 22 23 23 23 23 22 19 18 18 17 18 20 20 20 21 22 23 23 24 24 24 23 22 22 21 20 20 19 19 18 18 17 16 16 15 14 14 14 14 14 13 13 13
21 21 23 24 23 22 22 19 18 19 19 18 19 20 21 23 23 24 25 25 24 24 23 23 22 22 21 20 20 19 19 18 17 16 16 15 15 14 14 14 14 14 13 13
20 21 23 24 24 24 23 20 19 18 19 19 19 21 22 23 23 23 23 24 24 24 23 23 23 22 21 21 20 20 19 18 17 17 16 15 15 14 14 14 14 14 14 14
22 22 23 24 24 24 23 21 18 18 19 18 19 20 20 22 23 23 22 23 24 24 24 23 23 22 22 21 20 20 19 18 18 17 16 15 15 15 14 14 14 14 14 14
22 21 22 23 23 23 23 22 19 16 17 18 19 19 20 21 21 22 22 24 24 24 24 24 23 23 22 21 20 20 19 18 18 17 16 15 15 15 14 14 14 14 14 14
21 18 20 22 22 23 23 22 19 19 19 17 17 18 21 20 21 22 22 24 24 24 24 24 23 23 22 21 20 20 19 18 18 17 16 16 15 15 15 15 14 14 14 14
21 19 19 19 20 21 23 23 20 18 17 17 17 19 20 20 21 22 22 23 24 24 23 23 23 22 22 21 21 20 19 19 18 17 17 16 15 15 15 15 15 14 14 14
20 18 19 20 20 21 22 23 22 19 18 18 18 19 20 20 19 20 21 22 23 23 23 22 22 22 22 22 21 20 20 19 18 17 17 16 16 15 15 15 15 15 14 14
19 19 20 20 21 22 22 22 22 20 19 18 19 19 19 19 19 20 20 21 21 21 22 22 22 22 22 22 21 21 20 19 18 18 17 17 16 16 15 15 15 15 15 15
17 19 19 20 21 20 21 21 21 21 21 19 19 19 19 19 19 19 19 20 20 20 20 21 21 21 21 21 21 21 20 19 19 18 17 17 16 16 16 15 15 15 15 15
17 18 18 18 18 20 20 21 21 20 20 19 19 18 18 18 18 18 19 19 19 19 20 20 21 21 21 21 21 21 21 20 19 18 18 17 17 16 16 16 15 15 15 15
17 17 15 16 18 20 19 19 20 19 19 19 18 18 18 18 18 18 18 19 19 19 19 20 20 21 21 21 21 21 21 20 19 19 18 18 17 16 16 16 16 15 15 15
16 16 15 15 17 18 19 20 20 19 18 18 17 17 18 18 18 18 18 18 18 18 19 19 20 20 20 21 21 21 20 20 19 19 19 18 17 17 16 16 16 16 16 15
15 15 15 15 17 17 18 19 20 18 16 17 17 16 17 17 14 15 17 18 18 18 18 19 19 20 20 20 20 20 20 20 19 20 19 19 18 17 17 16 16 16 16 16
16 15 15 15 16 16 17 18 19 17 16 17 17 17 17 15 15 16 17 17 17 17 18 18 18 19 19 19 19 19 19 19 19 20 19 19 18 18 17 17 16 16 16 16
16 15 15 14 15 16 17 18 17 16 17 17 17 17 17 16 16 16 16 16 16 17 17 17 17 18 18 18 18 18 18 19 19 19 19 19 19 18 18 17 17 16 16 16
15 15 14 14 15 16 17 17 17 17 17 16 16 16 16 16 16 15 15 15 15 15 16 16 16 16 17 17 17 17 18 18 18 19 19 19 19 18 18 18 17 17 16 16
13 14 14 14 14 15 16 17 17 16 16 16 16 15 15 15 15 14 14 14 14 14 14 15 15 15 15 16 16 16 16 17 17 18 18 18 18 18 18 18 17 17 16 16
13 13 13 13 13 14 15 16 15 15 15 15 15 15 14 14 14 13 13 13 13 13 13 13 13 14 14 14 15 15 15 15 16 17 17 17 18 18 18 18 18 17 17 17
11 13 12 12 14 13 14 15 15 15 14 14 14 14 13 13 13 13 13 12 12 12 12 12 12 12 13 13 14 14 14 14 15 15 16 16 17 17 17 18 17 17 17 16
Wind_Speed
4 5 5 7 7 6 4 3 2 5 4 4 8 10 10 8 8 10 10 11 11 11 9 10 11 11 10 10 9 9 8 6 5 3 3 2 1 0 0 0 1 2 3 4
6 2 6 8 6 4 3 1 2 5 4 4 6 9 8 7 9 10 12 12 13 10 8 10 10 10 11 11 10 9 9 7 6 4 3 3 2 1 1 1 1 1 1 2
6 4 6 6 6 5 4 4 4 4 3 3 2 8 6 5 4 6 8 10 12 15 15 13 12 10 10 11 11 11 9 8 7 5 4 3 3 2 2 1 2 2 1 1
2 3 5 6 7 7 4 5 4 2 2 4 2 3 8 5 1 5 7 8 11 12 12 13 12 12 12 11 10 10 9 8 7 6 5 5 3 2 3 2 2 2 1 1
4 5 6 6 7 8 6 4 2 1 1 3 2 2 7 4 1 5 7 8 10 12 14 15 14 14 11 10 10 10 10 8 7 7 7 6 4 3 2 1 1 1 2 2
2 3 5 6 4 5 2 4 5 5 4 2 3 3 4 4 5 4 4 7 8 11 12 12 11 10 9 9 9 10 10 8 7 7 7 6 6 4 2 1 1 1 1 2
3 2 2 2 2 2 5 6 5 6 5 5 4 2 5 6 5 5 6 6 7 10 11 11 11 11 11 11 11 10 11 9 8 7 6 7 7 6 5 4 3 2 1 2
2 3 4 3 4 3 3 8 6 2 3 5 5 2 5 5 4 2 4 5 7 9 11 13 14 14 13 13 12 11 11 9 8 8 7 6 6 4 4 4 4 4 3 3
4 3 3 3 3 5 3 2 6 6 1 2 4 4 6 4 3 1 1 3 6 9 11 13 13 13 13 14 13 13 12 10 9 9 7 6 6 6 5 5 4 3 3 3
5 2 1 1 4 2 5 6 6 4 2 2 5 3 3 5 4 3 2 4 6 8 10 11 12 13 13 13 12 11 11 11 9 9 8 6 6 7 6 5 4 4 4 3
4 4 2 3 1 3 1 3 5 4 5 4 1 6 5 6 6 5 6 6 7 8 10 12 12 12 12 10 10 11 10 9 9 9 7 7 7 6 6 5 5 5 4 4
3 5 1 3 5 4 5 5 6 4 1 4 3 6 7 5 5 4 5 5 5 7 8 9 10 10 10 11 11 11 11 10 10 9 8 8 7 6 6 6 6 5 4 4
4 6 4 7 8 6 2 1 5 6 5 4 3 6 5 5 5 5 4 5 4 3 4 4 6 9 11 12 12 12 12 11 10 9 9 8 7 7 7 7 7 6 5 4
4 4 5 5 6 5 5 4 2 5 4 4 6 7 7 7 5 6 5 5 4 3 2 2 5 8 9 11 12 12 12 11 11 10 9 9 9 9 8 8 7 7 6 5
5 3 1 4 4 2 4 6 5 5 8 8 7 5 5 4 2 4 5 7 7 6 5 4 5 7 8 8 10 11 12 11 11 11 10 11 9 8 8 8 7 7 6 6
4 2 4 6 6 6 6 7 6 4 4 4 3 1 3 1 5 8 9 9 9 8 8 7 6 5 7 10 11 11 12 12 11 12 12 10 9 8 8 8 8 7 7 6
2 3 2 4 6 6 6 5 3 0 0 4 3 3 1 5 8 7 7 8 8 9 9 9 8 7 7 9 11 13 14 12 12 13 12 11 10 9 9 9 8 8 8 6
4 4 3 1 3 3 6 3 3 5 4 3 3 2 2 4 4 6 7 8 10 11 11 10 10 9 7 6 7 9 10 11 13 13 13 12 11 10 9 9 9 9 7 7
8 7 4 3 2 6 6 4 1 3 3 5 3 4 3 2 4 7 9 8 8 9 9 9 9 7 7 6 5 6 9 11 13 14 14 13 13 11 10 10 10 8 7 7
5 5 5 4 3 5 5 6 3 6 2 5 4 5 4 5 4 4 8 8 9 10 10 10 11 9 9 8 4 3 7 10 14 16 15 14 13 13 12 12 10 7 7 8
3 2 4 5 5 6 6 6 3 2 5 2 3 4 4 3 3 5 6 7 8 8 9 11 11 10 9 9 6 4 4 9 13 13 12 12 13 14 13 11 9 8 8 7
3 3 3 4 4 6 4 2 2 4 2 2 2 2 3 1 2 3 5 7 8 9 10 10 10 11 10 9 8 7 7 8 7 8 11 13 14 13 12 11 10 9 9 8
2 4 5 6 6 3 2 1 2 4 4 2 2 1 2 2 3 4 5 6 7 8 9 9 9 11 11 10 8 8 9 8 6 6 10 12 13 13 11 12 12 8 8 8
4 1 2 1 3 2 2 2 2 2 3 2 2 1 2 2 3 4 5 6 7 8 8 9 10 11 12 12 10 9 10 8 6 6 8 10 11 11 11 10 10 10 10 9
6 2 1 4 4 2 1 0 1 2 2 2 1 1 1 1 2 3 3 5 6 7 7 8 9 10 12 12 12 11 10 8 7 7 7 7 9 10 11 10 9 11 11 12
6 7 6 8 7 5 6 5 3 2 2 2 1 1 1 1 1 2 3 4 5 6 7 8 9 10 11 12 13 12 11 9 8 7 6 6 6 7 8 8 4 2 5 10
Wind_Direction
120 97 137 185 179 161 166 163 223 247 236 215 240 254 259 238 210 203 202 198 196 193 182 166 160 155 148 148 145 147 143 145 128 114 117 114 115 149 56 305 80 63 45 39
76 129 188 177 169 170 172 162 253 274 263 230 257 269 265 236 215 201 194 195 194 182 164 166 162 160 159 158 157 154 152 150 143 144 153 160 164 198 218 294 326 34 48 32
142 197 177 164 164 189 214 188 208 237 315 307 327 321 305 284 231 196 188 188 187 181 176 175 170 171 164 162 164 163 161 154 152 143 120 89 64 42 25 349 302 293 267 47
179 204 170 178 198 192 233 222 205 222 43 311 60 296 303 307 250 191 192 181 184 183 177 176 174 174 175 172 164 158 159 155 154 145 137 137 142 170 221 231 256 287 255 252
204 175 163 191 214 190 214 212 209 261 102 337 345 146 293 326 210 230 215 195 189 184 179 180 181 179 176 165 159 159 155 156 160 154 149 146 159 196 223 245 255 287 292 288
200 185 179 198 220 186 167 50 31 45 69 343 272 154 275 263 226 227 222 205 192 187 183 180 175 165 164 159 156 155 156 165 168 162 159 161 173 185 185 213 235 268 282 298
10 312 228 167 62 16 81 72 30 15 15 272 301 97 257 264 245 201 195 203 191 182 175 170 167 170 170 168 166 164 163 170 177 171 173 181 188 187 194 208 210 204 218 245
131 280 243 178 162 168 150 131 142 166 250 294 351 25 271 279 262 211 185 185 171 176 179 179 181 179 178 178 174 171 172 175 179 179 186 192 191 188 199 204 197 195 206 221
151 250 258 197 161 139 113 134 167 138 119 8 338 332 324 346 335 359 124 156 182 187 188 187 185 184 182 182 182 179 178 178 182 184 185 191 193 189 195 199 193 194 207 217
134 120 274 179 60 36 145 145 85 86 96 357 331 313 259 264 262 268 231 213 216 202 197 195 191 191 190 188 185 180 178 181 183 184 186 190 195 194 193 186 192 198 211 217
86 114 355 41 145 227 50 75 98 104 135 139 301 285 247 238 238 229 236 233 222 213 207 202 201 198 192 185 182 182 183 180 183 188 191 189 196 198 195 194 203 202 210 212
58 107 80 282 283 209 164 168 140 136 203 157 168 268 283 267 265 252 258 266 257 229 217 210 203 194 189 189 189 188 186 185 189 189 190 196 201 196 195 202 208 205 210 216
78 89 57 355 345 354 358 186 150 134 125 153 173 264 310 343 328 312 306 305 300 277 246 224 206 200 200 198 195 193 192 192 189 186 189 196 200 200 203 207 210 209 210 216
99 99 145 187 238 267 289 284 211 136 160 215 222 246 306 324 327 336 344 335 330 325 300 251 228 221 213 205 200 197 198 193 188 186 189 197 204 205 207 207 207 208 205 203
79 104 188 232 261 272 277 280 259 208 200 198 231 226 273 298 327 2 14 16 20 6 347 310 262 241 230 218 209 202 200 194 190 188 195 203 206 205 204 204 208 207 204 206
53 91 30 339 333 343 314 289 268 241 212 198 179 248 287 57 62 42 31 28 21 1 343 324 299 268 240 226 215 207 203 198 189 193 201 203 199 200 203 206 206 202 204 205
20 101 71 295 314 354 309 279 237 163 296 161 166 218 173 72 62 49 31 26 14 356 345 336 317 287 257 237 217 211 207 195 192 199 202 200 197 200 205 205 200 202 203 200
174 124 140 237 1 257 252 299 122 102 41 61 107 105 111 121 108 59 37 26 10 357 348 340 332 315 292 264 234 219 200 193 197 201 203 201 198 202 202 200 203 206 201 200
174 153 148 146 220 276 295 311 280 136 39 2 78 66 56 102 56 19 10 14 8 353 345 337 331 321 320 303 267 223 205 199 201 205 206 204 199 199 198 201 207 206 201 206
121 127 138 148 182 241 263 301 317 103 63 340 66 68 48 54 45 322 335 355 2 356 350 347 345 348 349 336 315 244 221 209 212 213 210 204 198 197 200 203 203 200 199 208
76 95 166 189 213 252 275 302 43 127 231 254 94 86 73 83 210 267 323 354 355 353 349 351 353 352 342 341 342 301 256 233 230 220 209 202 200 200 201 200 197 196 198 204
185 175 195 164 193 245 302 39 135 200 171 144 105 93 84 82 327 343 352 351 350 350 348 350 351 345 342 345 347 324 294 273 261 228 210 206 203 203 202 196 197 194 193 199
198 190 194 192 211 246 345 122 167 144 141 149 125 96 81 38 348 343 345 344 342 342 341 342 342 339 340 344 343 327 308 308 295 244 220 214 207 205 197 194 196 193 192 198
292 0 138 268 255 310 9 64 77 115 133 141 131 111 68 12 335 338 339 340 340 338 336 337 340 338 335 335 334 322 317 320 306 271 241 221 210 207 201 197 196 196 197 201
249 308 294 265 260 305 309 311 140 121 109 101 89 79 50 13 339 334 332 334 334 333 331 335 335 330 325 328 330 329 326 323 314 295 269 239 219 209 204 201 200 200 204 201
213 208 216 239 233 219 247 244 215 174 179 170 136 24 11 12 309 323 317 315 320 322 325 329 329 326 324 326 327 328 327 323 315 309 297 260 230 215 202 192 189 206 207 212
Height
1493 1500 1506 1506 1503 1505 1509 1511 1511 1504 1496 1498 1497 1494 1488 1486 1488 1488 1489 1491 1493 1495 1498 1501 1503 1505 1506 1507 1508 1509 1509 1509 1509 1509 1509 1509 1508 1507 1507 1505 1504 1503 1501 1500
1498 1502 1499 1499 1501 1503 1506 1509 1509 1502 1494 1496 1496 1493 1486 1483 1483 1482 1485 1488 1490 1493 1497 1499 1501 1503 1504 1505 1506 1507 1507 1508 1508 1508 1508 1508 1507 1507 1506 1505 1504 1503 1501 1500
1499 1498 1496 1498 1503 1504 1504 1506 1505 1503 1496 1494 1497 1498 1488 1481 1479 1481 1483 1485 1487 1490 1493 1496 1498 1501 1502 1504 1504 1505 1506 1506 1507 1507 1507 1507 1506 1506 1505 1505 1504 1503 1501 1500
1497 1494 1495 1498 1500 1501 1505 1496 1497 1498 1505 1509 1503 1517 1496 1487 1482 1481 1482 1483 1485 1488 1491 1493 1496 1498 1500 1502 1503 1504 1504 1505 1505 1506 1505 1505 1505 1505 1505 1504 1503 1502 1501 1500
1495 1492 1494 1497 1494 1493 1496 1490 1494 1496 1504 1511 1507 1515 1506 1490 1488 1483 1481 1482 1484 1485 1488 1491 1493 1495 1498 1500 1501 1502 1503 1503 1504 1504 1504 1504 1504 1504 1504 1504 1503 1502 1501 1500
1489 1488 1489 1489 1486 1487 1488 1493 1499 1505 1512 1522 1509 1514 1510 1498 1488 1483 1481 1481 1483 1484 1486 1489 1492 1495 1497 1499 1500 1500 1501 1502 1502 1503 1503 1503 1503 1503 1503 1503 1503 1502 1501 1500
1493 1489 1485 1485 1489 1489 1492 1509 1525 1527 1533 1527 1507 1510 1508 1489 1482 1480 1480 1480 1481 1482 1485 1487 1490 1493 1494 1496 1497 1498 1499 1500 1501 1501 1501 1502 1502 1502 1502 1502 1502 1501 1501 1500
1503 1504 1488 1484 1488 1493 1495 1507 1526 1534 1535 1527 1512 1512 1501 1484 1481 1480 1479 1479 1480 1481 1483 1485 1487 1489 1491 1493 1495 1496 1497 1498 1499 1499 1500 1500 1501 1501 1501 1501 1501 1501 1501 1500
1502 1501 1485 1482 1482 1486 1494 1503 1505 1520 1522 1528 1521 1507 1494 1485 1484 1482 1481 1480 1480 1481 1482 1483 1485 1487 1489 1490 1492 1493 1494 1496 1497 1498 1498 1499 1499 1500 1500 1500 1500 1500 1500 1500
1488 1497 1488 1483 1483 1484 1488 1495 1510 1519 1531 1537 1527 1517 1511 1493 1488 1484 1482 1481 1480 1480 1480 1481 1483 1484 1486 1487 1489 1491 1492 1493 1494 1496 1496 1497 1498 1499 1499 1500 1500 1500 1499 1499
1485 1497 1496 1490 1491 1493 1492 1496 1507 1520 1525 1536 1536 1525 1496 1491 1486 1484 1481 1480 1479 1478 1478 1479 1480 1481 1483 1485 1487 1488 1489 1491 1492 1493 1494 1495 1496 1497 1498 1498 1498 1499 1499 1499
1487 1500 1506 1497 1488 1484 1488 1493 1503 1519 1522 1527 1533 1524 1488 1487 1484 1482 1480 1479 1478 1477 1477 1477 1478 1479 1481 1482 1483 1485 1486 1488 1489 1491 1492 1493 1495 1496 1496 1497 1497 1498 1498 1498
1488 1501 1515 1513 1505 1493 1490 1489 1495 1506 1517 1525 1529 1518 1487 1486 1484 1482 1480 1478 1477 1476 1476 1476 1476 1477 1478 1479 1480 1482 1483 1485 1487 1488 1490 1491 1492 1493 1494 1495 1496 1496 1497 1497
1486 1500 1512 1517 1511 1500 1496 1491 1491 1502 1516 1518 1514 1506 1493 1488 1486 1482 1479 1477 1476 1475 1475 1474 1474 1475 1475 1476 1477 1478 1480 1482 1484 1485 1487 1488 1489 1491 1492 1493 1494 1495 1495 1495
1489 1501 1499 1499 1495 1494 1493 1492 1491 1495 1500 1507 1502 1499 1494 1488 1486 1483 1481 1478 1476 1475 1474 1474 1473 1472 1472 1473 1473 1474 1476 1478 1480 1482 1483 1484 1486 1488 1490 1491 1492 1492 1493 1494
1493 1499 1500 1501 1494 1494 1493 1489 1488 1489 1490 1494 1495 1496 1488 1487 1485 1483 1481 1479 1478 1476 1475 1473 1471 1470 1469 1469 1469 1470 1472 1474 1476 1477 1479 1481 1483 1485 1486 1488 1489 1490 1491 1491
1498 1501 1506 1510 1501 1497 1501 1489 1486 1488 1487 1489 1495 1494 1487 1486 1485 1485 1483 1481 1479 1477 1475 1472 1470 1468 1467 1465 1466 1466 1467 1469 1471 1473 1475 1477 1479 1481 1483 1484 1486 1487 1488 1488
1497 1502 1510 1512 1507 1511 1499 1484 1483 1487 1488 1487 1487 1488 1486 1485 1486 1485 1484 1482 1479 1477 1475 1472 1469 1466 1464 1463 1462 1463 1464 1465 1467 1468 1470 1473 1475 1477 1479 1480 1482 1483 1484 1485
1490 1499 1509 1515 1514 1507 1494 1485 1483 1487 1493 1489 1488 1487 1486 1484 1483 1484 1484 1483 1481 1478 1476 1473 1469 1466 1463 1461 1460 1460 1460 1461 1462 1464 1465 1467 1470 1472 1474 1475 1477 1479 1480 1481
1489 1495 1506 1513 1512 1512 1497 1484 1480 1484 1497 1491 1488 1487 1486 1485 1490 1489 1485 1482 1480 1477 1475 1472 1468 1465 1462 1459 1458 1457 1456 1457 1457 1458 1460 1462 1464 1466 1468 1470 1472 1474 1476 1477
1497 1501 1506 1510 1511 1503 1489 1483 1482 1497 1499 1491 1488 1487 1487 1487 1489 1487 1484 1481 1479 1476 1474 1470 1467 1464 1462 1459 1456 1454 1453 1453 1453 1454 1455 1457 1459 1461 1463 1465 1467 1469 1471 1472
1498 1502 1505 1508 1510 1505 1486 1484 1488 1491 1488 1488 1487 1487 1486 1486 1485 1484 1482 1480 1477 1474 1471 1468 1465 1462 1460 1458 1455 1452 1450 1449 1448 1448 1449 1451 1453 1455 1457 1459 1461 1463 1465 1467
1496 1496 1497 1498 1498 1489 1485 1485 1485 1485 1486 1486 1486 1486 1485 1484 1483 1482 1480 1478 1475 1472 1470 1467 1463 1460 1458 1455 1453 1450 1447 1445 1443 1442 1443 1444 1446 1448 1450 1452 1455 1457 1459 1460
1493 1490 1492 1492 1489 1486 1485 1485 1485 1485 1485 1485 1484 1484 1483 1482 1481 1479 1477 1475 1473 1470 1467 1464 1461 1457 1454 1452 1450 1447 1444 1441 1439 1437 1437 1437 1439 1441 1443 1445 1448 1450 1451 1453
1492 1490 1491 1491 1487 1486 1484 1484 1484 1484 1483 1483 1482 1481 1480 1479 1478 1476 1475 1473 1470 1468 1465 1462 1459 1455 1452 1449 1446 1443 1440 1437 1434 1432 1431 1431 1432 1433 1435 1437 1439 1441 1443 1446
1486 1487 1489 1487 1482 1483 1482 1481 1481 1481 1480 1479 1479 1478 1477 1476 1474 1473 1471 1469 1467 1464 1462 1459 1455 1452 1448 1445 1442 1439 1436 1433 1430 1427 1426 1425 1425 1426 1427 1429 1431 1433 1436 1439